Detroit, MI

2:08 AM EST on January 20, 2017 (GMT -0500)
Detroit Metro Wayne County

Weather History for KDTW - July, 2013

Change the Weather History Date:

Thursday, July 18, 2013

  Actual Average Record
Temperature  
Mean Temperature 85 °F 74 °F  
Max Temperature 94 °F 84 °F 99 °F (1942)
Min Temperature 75 °F 64 °F 49 °F (1971)
Degree Days  
Heating Degree Days 0 0  
Month to date heating degree days 0 0  
Since 1 June heating degree days 23 35  
Since 1 July heating degree days 0 0  
Cooling Degree Days 20 9  
Month to date cooling degree days 211 159  
Year to date cooling degree days 484 374  
Since 1 June cooling degree days 381 326  
Growing Degree Days 34 (Base 50)    
Moisture  
Dew Point 73 °F    
Average Humidity 70    
Maximum Humidity 87    
Minimum Humidity 52    
Precipitation  
Precipitation 0.19 in 0.11 in 2.70 in (1903)
Month to date precipitation 2.99 1.87  
Year to date precipitation 23.85 17.93  
Snow  
Snow 0.00 in 0.00 in 0.00 in ()
Month to date snowfall 0.0 0.0  
Since 1 June snowfall 0.0 0.0  
Since 1 July snowfall 0.0 0.0  
Snow Depth 0.00 in    
Sea Level Pressure  
Sea Level Pressure 30.08 in    
Wind  
Wind Speed 6 mph (SSW)    
Max Wind Speed 30 mph    
Max Gust Speed 36 mph    
Visibility 9 miles    
Events Rain , Thunderstorm    
T = Trace of Precipitation, MM = Missing Value Source: NWS Daily Summary

Daily Weather History Graph

Daily Weather History Graph

Search for Another Location

Airport or City:

Trip Planner

Search our weather history database for the weather conditions in past years. The results will help you decide how hot, cold, wet, or windy it might be!

Date:

Astronomy

Jul. 18, 2013 Rise Set
Actual Time 6:13 AM EDT 9:05 PM EDT
Civil Twilight 5:40 AM EDT 9:38 PM EDT
Nautical Twilight 4:58 AM EDT 10:20 PM EDT
Astronomical Twilight 4:09 AM EDT 11:08 PM EDT
Moon 5:00 PM EDT (7/18) 2:03 AM EDT (7/18)
Length of Visible Light 15h 58m
Length of Day
14h 52m
Waxing Gibbous, 77% of the Moon is Illuminated
Jul 18
Waxing Gibbous
Jul 22
Full
Jul 29
Last Quarter
Aug 6
New
Aug 14
First Quarter

Hourly Weather History & Observations

Time (EDT) Temp. Heat Index Dew Point Humidity Pressure Visibility Wind Dir Wind Speed Gust Speed Precip Events Conditions
12:53 AM 81.0 °F 86.2 °F 73.9 °F 79% 30.17 in 10.0 mi SW 4.6 mph - N/A   Clear
1:53 AM 80.1 °F 84.2 °F 73.0 °F 79% 30.15 in 10.0 mi West 4.6 mph - N/A   Partly Cloudy
2:53 AM 79.0 °F - 72.0 °F 79% 30.15 in 9.0 mi WSW 4.6 mph - N/A   Partly Cloudy
3:53 AM 78.1 °F - 72.0 °F 81% 30.14 in 10.0 mi West 5.8 mph - N/A   Partly Cloudy
4:53 AM 77.0 °F - 71.1 °F 82% 30.14 in 10.0 mi WSW 4.6 mph - N/A   Partly Cloudy
5:53 AM 77.0 °F - 71.1 °F 82% 30.14 in 8.0 mi WSW 3.5 mph - N/A   Partly Cloudy
6:53 AM 75.0 °F - 72.0 °F 90% 30.14 in 7.0 mi SSE 3.5 mph - N/A   Partly Cloudy
7:53 AM 77.0 °F - 72.0 °F 84% 30.15 in 9.0 mi SSE 4.6 mph - N/A   Partly Cloudy
8:53 AM 81.0 °F 85.8 °F 73.0 °F 77% 30.14 in 10.0 mi South 4.6 mph - N/A   Partly Cloudy
9:53 AM 84.0 °F 91.2 °F 73.9 °F 72% 30.12 in 10.0 mi Variable 3.5 mph - N/A   Scattered Clouds
10:53 AM 87.1 °F 96.3 °F 75.0 °F 67% 30.12 in 10.0 mi SSE 3.5 mph - N/A   Scattered Clouds
11:53 AM 90.0 °F 100.2 °F 75.0 °F 61% 30.11 in 10.0 mi SSW 4.6 mph - N/A   Scattered Clouds
12:31 PM 87.8 °F 95.6 °F 73.4 °F 62% 30.13 in 5.0 mi WSW 18.4 mph 26.5 mph 0.00 in Rain , Thunderstorm Light Thunderstorms and Rain
12:40 PM 78.8 °F - 71.6 °F 78% 30.14 in 1.5 mi SW 26.5 mph 35.7 mph 0.03 in Rain , Thunderstorm Heavy Thunderstorms and Rain
12:47 PM 80.6 °F 83.9 °F 69.8 °F 70% 30.13 in 4.0 mi Variable 3.5 mph 34.5 mph 0.17 in Rain , Thunderstorm Thunderstorms and Rain
12:53 PM 81.0 °F 84.1 °F 69.1 °F 67% 30.12 in 5.0 mi Calm Calm - 0.18 in Rain , Thunderstorm Thunderstorms and Rain
1:24 PM 82.4 °F 88.2 °F 73.4 °F 74% 30.11 in 10.0 mi Calm Calm - 0.00 in   Mostly Cloudy
1:53 PM 82.0 °F 87.9 °F 73.9 °F 76% 30.09 in 10.0 mi SSE 3.5 mph - N/A   Mostly Cloudy
2:53 PM 89.1 °F 101.4 °F 77.0 °F 67% 30.08 in 10.0 mi SSE 6.9 mph - N/A   Mostly Cloudy
3:53 PM 91.0 °F 102.9 °F 75.9 °F 61% 30.05 in 10.0 mi SSE 13.8 mph 20.7 mph N/A   Mostly Cloudy
4:53 PM 93.0 °F 101.9 °F 73.0 °F 52% 30.02 in 10.0 mi SSW 8.1 mph - N/A   Mostly Cloudy
5:53 PM 89.1 °F 99.1 °F 75.0 °F 63% 30.01 in 10.0 mi West 4.6 mph - 0.01 in Thunderstorm Thunderstorm
6:24 PM 89.6 °F 99.8 °F 75.2 °F 62% 30.02 in 10.0 mi Variable 3.5 mph - N/A   Mostly Cloudy
6:53 PM 91.0 °F 96.6 °F 70.0 °F 50% 30.00 in 10.0 mi West 12.7 mph - N/A   Mostly Cloudy
7:53 PM 90.0 °F 96.9 °F 72.0 °F 55% 29.99 in 10.0 mi WSW 9.2 mph - N/A   Scattered Clouds
8:53 PM 88.0 °F 95.6 °F 73.0 °F 61% 29.97 in 10.0 mi SW 9.2 mph - N/A   Partly Cloudy
9:53 PM 86.0 °F 93.8 °F 73.9 °F 67% 29.97 in 10.0 mi SSW 9.2 mph - 0.00 in Rain Light Rain
10:53 PM 84.0 °F 91.2 °F 73.9 °F 72% 29.98 in 10.0 mi SSW 5.8 mph - 0.00 in   Partly Cloudy
11:53 PM 82.0 °F 87.9 °F 73.9 °F 76% 29.98 in 10.0 mi South 9.2 mph - N/A   Partly Cloudy